A-M;J;H:Mn;Camp;N�;Lon;Lat;Si(OH)4;NO3+NO2;PO4;AT;CT;pH;Sal;SST
2001-04-10;06:18:00;G;1;354.47;48.95;1.81;3.89;0.14;2366.00;2119.70;7.97;35.40;11.51
2001-04-10;10:10:00;G;2;352.40;48.12;1.56;4.10;0.17;2360.60;2113.40;7.97;35.53;11.47
2001-04-10;15:15:00;G;3;350.77;47.43;1.79;3.95;0.19;2367.00;2102.30;7.99;35.58;12.31
2001-04-10;17:20:00;G;4;349.20;46.78;1.81;5.40;0.26;2370.20;2109.90;7.99;35.61;12.50
2001-04-10;21:15:00;G;5;347.55;46.08;2.03;4.69;0.27;2363.90;2109.70;7.98;35.59;12.60
2001-04-11;06:15:00;G;6;343.72;44.90;NULL;2.03;0.17;2364.50;2093.10;8.01;35.64;13.40
2001-04-11;10:05:00;G;7;342.12;44.76;1.44;2.67;0.17;2368.10;2089.80;8.02;35.70;13.50
2001-04-11;14:10:00;G;8;340.29;44.61;1.57;3.22;0.20;2373.30;2096.20;8.02;35.77;13.85
2001-04-11;18:15:00;G;9;338.39;44.46;1.61;3.42;0.21;2377.40;2096.70;8.02;35.79;13.87
2001-04-11;22:10:00;G;10;336.78;44.46;2.67;2.11;0.18;2368.00;2086.40;8.03;35.79;13.65
2001-04-12;07:10:00;G;11;332.80;44.02;1.92;3.36;0.18;2380.00;2095.90;8.03;35.93;14.70
2001-04-12;11:12:00;G;12;331.05;43.88;1.69;3.32;0.19;2378.00;2092.50;8.03;35.94;14.57
2001-04-12;15:10:00;G;13;329.35;43.75;1.56;2.84;0.10;2380.10;2094.60;8.03;35.85;14.80
2001-04-12;19:15:00;G;14;327.62;43.60;1.89;2.87;0.23;2387.90;2092.00;8.04;36.02;14.85
2001-04-12;23:00:00;G;15;326.07;43.48;1.51;2.77;0.16;2381.40;2092.20;8.03;36.03;15.17
2001-04-13;08:10:00;G;16;322.12;43.15;3.34;2.44;0.14;2382.60;2083.20;8.04;36.12;15.73
2001-04-13;12:15:00;G;17;320.37;43.02;2.41;4.11;0.21;2388.30;2100.60;8.03;36.06;14.90
2001-04-13;16:10:00;G;18;318.52;42.85;2.76;2.95;0.21;2455.00;2106.30;8.10;36.00;14.70
2001-04-13;20:20:00;G;19;316.67;42.71;2.31;1.70;0.13;2408.20;2096.50;8.07;36.29;16.03
2001-04-14;09:05:00;G;20;311.12;42.27;1.50;1.76;0.26;2361.80;2083.10;8.04;34.80;9.29
2001-04-14;13:05:00;G;21;309.44;42.12;2.18;NULL;0.23;2273.00;2016.60;8.04;33.12;1.40
2001-04-14;17:12:00;G;22;307.72;41.98;2.34;5.01;0.33;2386.40;2115.10;8.02;35.67;13.89
2001-04-14;21:30:00;G;23;305.98;41.83;3.44;6.81;0.42;2372.20;2109.70;8.01;35.37;11.39
2001-04-16;10:00:00;G;24;293.72;40.46;1.32;2.43;0.44;2283.50;2055.60;7.97;32.85;7.61
2001-04-16;14:00:00;G;25;291.93;40.51;0.41;2.55;0.33;2264.20;2040.90;7.98;32.63;5.50
2001-04-16;18:00:00;G;26;290.12;40.55;3.80;5.46;0.50;2268.70;2049.80;7.96;32.86;6.40
2001-04-16;22:10:00;G;27;288.30;40.51;0.83;0.63;0.36;2247.00;2026.40;7.98;32.81;7.50
2001-04-17;02:00:00;G;28;286.77;40.48;2.08;0.00;0.37;2176.20;1969.90;7.97;31.42;6.90
2001-04-18;10:00:00;G;29;285.54;37.66;0.71;0.00;0.13;2277.70;2019.30;8.03;33.07;7.30
2001-04-18;14:00:00;G;30;284.30;36.85;0.60;0.37;0.25;2161.00;1968.10;7.96;30.40;9.10
2001-04-19;10:00:00;G;31;284.65;34.71;0.99;0.00;0.29;2407.80;2035.90;8.16;36.33;24.89
2001-04-19;14:00:00;G;32;283.42;33.95;1.09;0.00;0.14;2424.50;2070.30;8.13;36.36;20.48
2001-04-19;18:05:00;G;33;282.12;33.12;0.94;0.32;0.12;2403.50;2074.30;8.10;36.16;20.60
2001-04-19;22:00:00;G;34;280.82;32.33;0.44;0.00;0.08;2428.40;2073.40;8.13;36.56;20.65
2001-04-21;02:00:00;G;35;279.49;31.95;0.49;0.00;0.11;2341.20;2056.90;8.05;34.92;17.92
2001-04-21;10:00:00;G;36;279.97;31.20;1.18;0.00;0.09;2384.70;2016.40;8.16;36.24;24.00
2001-04-21;14:00:00;G;37;280.70;30.23;1.01;0.00;0.06;2382.70;2015.50;8.16;36.25;25.00
2001-04-21;18:00:00;G;38;281.57;29.08;1.24;0.00;0.07;2349.10;1989.40;8.15;36.26;24.30
2001-04-21;22:00:00;G;39;282.32;28.03;0.87;0.00;0.06;2389.70;2025.00;8.15;36.44;23.90
2001-04-22;02:00:00;G;40;283.07;27.02;1.05;0.05;0.06;2397.50;2028.80;8.15;36.74;24.30
2001-04-22;11:00:00;G;41;284.73;24.68;1.05;0.07;0.04;2381.50;2014.80;8.15;36.56;25.50
2001-04-22;15:00:00;G;42;285.39;23.61;0.63;0.00;0.03;2387.90;2010.50;8.17;36.38;26.00
2001-04-22;19:00:00;G;43;285.35;22.46;1.14;0.00;0.05;2394.80;2014.80;8.17;36.33;26.30
2001-04-22;23:00:00;G;44;285.67;21.17;1.23;0.01;0.05;2362.90;1993.90;8.16;36.24;26.40
2001-04-23;03:00:00;G;45;285.98;20.07;0.89;0.03;0.01;2357.00;1986.40;8.17;35.94;27.00
2001-04-23;11:15:00;G;46;284.65;17.65;1.42;0.00;0.03;2351.30;1985.80;8.16;36.01;27.10
2001-04-23;15:15:00;G;47;284.05;16.56;1.55;0.01;0.03;2353.20;1988.00;8.17;35.80;27.01
2001-04-23;19:05:00;G;48;282.61;15.45;1.72;0.01;0.03;2340.40;1975.90;8.16;35.88;27.14
2001-04-23;23:20:00;G;49;282.77;14.28;1.38;0.12;0.05;2376.40;2000.70;8.17;36.08;26.60
2001-04-24;03:00:00;G;50;282.20;13.23;0.82;0.08;0.03;2394.00;2030.50;8.14;36.50;26.40
2001-04-24;11:00:00;G;51;280.87;10.86;2.52;1.20;0.03;2364.50;2002.50;8.15;36.13;27.20
2001-04-24;15:00:00;G;52;280.30;9.78;1.98;0.33;0.02;2330.20;1967.60;8.16;35.52;27.30
2001-04-26;03:00:00;G;53;280.07;7.27;1.78;0.08;0.11;2267.30;1922.40;8.17;33.57;26.00
2001-04-26;12:00:00;G;54;277.40;6.05;1.38;0.24;0.24;2230.60;1882.10;8.19;33.36;28.60
2001-04-26;16:00:00;G;55;276.19;5.63;1.27;0.12;0.04;2169.30;1841.50;8.18;32.60;30.00
2001-04-26;20:00:00;G;56;274.92;5.18;1.99;0.12;0.01;2154.80;1831.80;8.17;32.43;29.90
2001-04-27;00:10:00;G;57;273.39;4.63;1.15;3.94;0.01;2184.10;1846.70;8.19;32.84;29.80
2001-04-27;04:00:00;G;58;272.12;4.18;1.04;4.73;0.02;2164.40;1827.80;8.19;32.51;29.40
2001-04-27;12:10:00;G;59;269.40;3.20;2.71;2.31;0.20;2285.90;1983.40;8.09;34.26;28.17
2001-04-27;16:00:00;G;60;268.10;2.75;1.99;5.99;0.23;2337.00;2022.50;8.09;34.99;26.70
2001-04-27;20:10:00;G;61;266.92;2.32;0.88;5.87;0.14;2336.40;2026.20;8.08;35.02;26.20
2001-04-28;00:05:00;G;62;265.57;1.83;3.55;7.99;0.34;2328.70;2036.90;8.07;34.90;25.90
2001-04-28;04:10:00;G;63;264.34;1.40;2.61;5.52;0.32;2306.10;2015.30;8.08;34.64;26.50
2001-04-28;13:15:00;G;64;261.45;0.37;4.84;7.45;0.39;2337.30;2049.60;8.06;35.04;25.00
2001-04-28;17:15:00;G;65;260.32;-0.03;2.65;4.24;0.33;2327.10;2049.00;8.04;35.08;24.80
2001-04-28;21:10:00;G;66;259.22;-0.42;3.54;7.31;0.39;2333.30;2069.40;8.02;35.15;25.60
2001-04-29;01:20:00;G;67;257.98;-0.86;1.95;6.52;0.31;2342.90;2058.10;8.05;35.23;25.50
2001-04-29;05:00:00;G;68;257.22;-1.13;2.98;6.48;0.38;2345.10;2050.50;8.07;35.27;25.90
2001-04-29;13:15:00;G;69;254.40;-2.15;2.57;5.57;0.37;2320.10;2017.10;8.09;34.92;26.40
2001-04-29;17:20:00;G;70;254.19;-2.58;2.38;7.38;0.36;2317.20;2014.00;8.09;34.87;26.40
2001-04-29;21:00:00;G;71;251.88;-3.05;2.60;8.45;0.31;2323.00;2013.70;8.11;34.83;27.60
2001-04-30;01:20:00;G;72;250.65;-3.48;3.00;5.53;0.39;2320.70;2007.20;8.12;34.66;27.20
2001-04-30;14:20:00;G;73;246.29;-5.05;3.56;5.53;0.46;2330.30;2028.80;8.10;34.96;26.70
2001-04-30;18:10:00;G;74;245.12;-5.46;2.20;3.90;0.36;2335.30;2027.20;8.11;35.03;27.10
2001-04-30;22:10:00;G;75;243.82;-5.91;1.81;3.52;0.30;2323.60;2012.60;8.11;35.04;NULL
2001-05-01;02:05:00;G;76;242.35;-6.45;1.52;7.43;0.23;2322.10;2011.00;8.12;34.93;NULL
2001-05-01;06:00:00;G;77;241.25;-6.83;1.23;6.11;0.17;2340.20;1996.70;8.16;35.09;NULL
2001-05-01;14:15:00;G;78;237.72;-7.08;3.02;6.20;0.31;2329.80;2010.70;8.13;34.97;NULL
2001-05-01;18:20:00;G;79;237.05;-8.32;2.96;6.30;0.23;2346.40;2010.40;8.15;35.23;NULL
2001-05-01;22:10:00;G;80;235.78;-8.78;2.76;6.40;0.31;2332.70;2006.50;8.14;35.07;NULL
2001-05-02;02:00:00;G;81;234.30;-9.30;2.05;6.58;0.37;2338.60;2010.70;8.14;35.19;NULL
2001-05-02;06:10:00;G;82;232.97;-9.78;1.78;5.07;0.34;2339.80;2005.10;8.15;35.09;NULL
2001-05-02;15:20:00;G;83;230.00;-10.81;1.92;6.08;0.40;2365.30;2042.20;8.12;35.53;NULL
2001-05-02;19:15:00;G;84;228.83;-11.22;2.31;3.52;0.36;2351.10;2010.50;8.15;35.43;28.50
2001-05-02;23:05:00;G;85;227.54;-11.68;1.56;3.01;0.35;2389.20;2019.10;8.18;35.91;29.00
2001-05-03;03:30:00;G;86;225.95;-12.23;2.06;1.76;0.28;2390.70;2012.20;8.19;35.94;28.70
2001-05-03;13:20:00;G;87;221.95;-13.63;1.08;0.17;0.22;2385.10;1995.70;8.21;36.04;28.70
2001-05-03;19:15:00;G;88;220.59;-14.10;0.65;0.05;0.16;2393.10;1993.60;8.22;36.04;29.00
2001-05-03;23:00:00;G;89;219.24;-14.65;1.08;0.08;0.21;2386.40;1988.90;8.22;35.98;29.20
2001-05-04;03:00:00;G;90;217.83;-15.25;1.33;0.03;0.22;2392.20;1993.30;8.22;36.03;29.40
2001-05-04;07:00:00;G;91;216.54;-15.80;1.45;0.07;0.21;2396.40;2000.90;8.22;36.04;28.90
2001-05-04;16:10:00;G;92;213.20;-16.91;0.65;0.14;0.17;2392.90;1999.00;8.22;36.06;28.90
2001-05-04;20:00:00;G;93;212.02;-17.15;1.21;0.17;0.17;2396.60;2019.10;8.19;35.96;28.90
2001-05-06;16:05:00;G;94;208.19;-18.81;0.86;0.05;0.15;2381.60;1985.00;8.22;35.77;28.00
2001-05-06;20:10:00;G;95;207.00;-19.50;1.41;0.22;0.14;2377.20;1976.90;8.23;35.84;27.90
2001-05-07;00:05:00;G;96;205.77;-20.22;0.81;0.09;0.12;2371.70;1982.90;8.21;35.93;27.50
2001-05-07;04:15:00;G;97;204.45;-20.96;0.76;0.88;0.15;2367.80;1976.90;8.21;35.79;27.00
2001-05-07;17:00:00;G;98;200.68;-23.12;0.73;0.02;0.07;2347.00;1971.40;8.21;35.40;24.90
2001-05-07;21:00:00;G;99;199.50;-23.78;1.36;0.15;0.09;2349.90;1973.60;8.20;35.48;24.50
2001-05-08;01:10:00;G;100;198.15;-24.55;0.87;0.05;0.07;2337.60;1960.40;8.21;35.33;24.90
2001-05-08;05:05:00;G;101;196.87;-25.27;1.06;0.09;0.05;2336.60;1968.40;8.19;35.32;23.40
2001-05-08;09:00:00;G;102;195.65;-25.93;0.65;0.03;0.03;2336.50;1988.10;8.16;35.41;22.90
2001-05-08;18:20:00;G;103;192.77;-27.51;0.48;0.03;0.00;2339.60;1987.40;8.16;35.40;22.40
2001-05-08;22:10:00;G;104;191.57;-28.17;0.90;0.15;0.03;2334.80;1987.90;8.16;35.38;22.30
2001-05-09;02:10:00;G;105;190.22;-28.90;0.88;0.08;0.04;2343.00;2000.30;8.15;35.45;22.40
2001-05-09;06:15:00;G;106;188.95;-29.56;1.35;0.21;0.03;2334.70;1982.40;8.17;35.33;22.60
2001-05-09;10:00:00;G;107;187.83;-30.17;1.23;0.19;0.05;2342.60;1990.50;8.17;35.43;21.90
2001-05-09;18:25:00;G;108;184.93;-31.70;0.46;0.06;0.00;2351.40;2018.90;8.14;35.64;20.90
2001-05-09;22:00:00;G;109;184.04;-32.17;1.34;0.21;0.04;2483.60;1971.50;8.33;35.56;20.80
2001-05-10;02:00:00;G;110;182.77;-32.81;0.43;0.04;0.00;2466.80;2020.60;8.26;35.62;20.75
2001-05-10;06:10:00;G;111;181.39;-33.53;0.96;0.04;0.04;2470.70;2029.20;8.25;35.62;20.40
2001-05-10;10:00:00;G;112;180.35;-34.08;0.95;0.03;0.04;2468.50;2037.60;8.23;35.64;19.80
2001-05-10;18:30:00;G;113;177.66;-35.40;0.48;0.03;0.02;2446.10;2037.50;8.21;35.65;19.75
2001-05-10;22:10:00;G;114;176.40;-36.03;1.25;0.54;0.07;2540.90;2020.70;8.32;35.50;19.40
2001-05-11;02:00:00;G;115;175.05;-36.56;8.21;0.26;0.27;2404.50;2008.10;8.20;34.61;19.20
2001-05-12;02:00:00;G;116;174.45;-35.20;1.09;0.46;0.10;2432.80;2021.60;8.21;35.53;20.30
2001-05-12;06:00:00;G;117;173.58;-33.91;1.31;0.11;0.09;2476.30;2028.20;8.25;35.52;19.90
2001-05-12;10:00:00;G;118;172.86;-32.83;0.52;0.06;0.03;2478.40;2003.70;8.29;35.56;21.20
2001-05-12;18:05:00;G;119;171.17;-30.23;0.60;0.11;0.02;2427.20;1982.80;8.26;35.44;22.20
2001-05-12;22:10:00;G;120;170.50;-29.20;0.75;0.11;0.03;2455.60;1987.70;8.28;35.64;21.90
2001-05-13;02:00:00;G;121;169.75;-28.03;0.81;0.03;0.02;2392.30;1959.90;8.26;35.25;23.30
2001-05-13;06:20:00;G;122;169.00;-26.83;0.35;0.08;0.02;2367.10;1938.60;8.26;35.09;24.10
2001-05-13;10:00:00;G;123;168.42;-25.88;0.52;0.09;0.01;2410.70;1948.80;8.28;35.34;23.50
2001-05-13;18:10:00;G;124;166.86;-23.35;0.41;0.14;0.00;2413.10;1942.60;8.29;35.35;25.30
